Time+07,TemperatureF,Dew PointF,Humidity,Sea Level PressureIn,VisibilityMPH,Wind Direction,Wind SpeedMPH,Gust SpeedMPH,PrecipitationIn,Events,Conditions,WindDirDegrees,DateUTC
12:00 AM,77.0,73.4,89,29.95,6.2,Calm,Calm,-,N/A,,Mostly Cloudy,0,2013-10-29 17:00:00
12:30 AM,75.2,73.4,94,29.92,5.6,Calm,Calm,-,N/A,,Mostly Cloudy,0,2013-10-29 17:30:00
1:00 AM,76,75,94,29.89,6,Calm,Calm,,,,Scattered Clouds,,2013-10-29 18:00:00
1:00 AM,75.2,73.4,94,29.92,-9999.0,North,-9999.0,-,N/A,,Mostly Cloudy,0,2013-10-29 18:00:00
1:30 AM,75.2,73.4,94,29.89,5.6,SE,2.3,-,N/A,,Mostly Cloudy,130,2013-10-29 18:30:00
2:00 AM,75.2,73.4,94,29.89,5.6,Calm,Calm,-,N/A,,Mostly Cloudy,0,2013-10-29 19:00:00
3:00 AM,75.2,73.4,94,29.89,5.6,Calm,Calm,-,N/A,,Mostly Cloudy,0,2013-10-29 20:00:00
4:00 AM,75.2,73.4,94,29.89,5.6,Calm,Calm,-,N/A,,Mostly Cloudy,0,2013-10-29 21:00:00
4:30 AM,75.2,73.4,94,29.89,5.6,Calm,Calm,-,N/A,,Mostly Cloudy,0,2013-10-29 21:30:00
5:00 AM,75.2,73.4,94,29.89,5.6,Calm,Calm,-,N/A,,Mostly Cloudy,0,2013-10-29 22:00:00
5:30 AM,75.2,73.4,94,29.89,6.2,Calm,Calm,-,N/A,,Mostly Cloudy,0,2013-10-29 22:30:00
6:00 AM,75.2,73.4,94,29.89,5.6,Calm,Calm,-,N/A,,Mostly Cloudy,0,2013-10-29 23:00:00
6:30 AM,75.2,73.4,94,29.92,5.6,Calm,Calm,-,N/A,,Mostly Cloudy,0,2013-10-29 23:30:00
7:00 AM,76,75,95,29.87,6,Calm,Calm,,,,Scattered Clouds,,2013-10-30 00:00:00
7:00 AM,75.2,73.4,94,29.92,5.6,Calm,Calm,-,N/A,,Mostly Cloudy,0,2013-10-30 00:00:00
7:30 AM,77.0,75.2,94,29.92,5.6,ESE,2.3,-,N/A,,Mostly Cloudy,120,2013-10-30 00:30:00
8:00 AM,77.0,75.2,94,29.95,5.6,East,3.5,-,N/A,,Mostly Cloudy,100,2013-10-30 01:00:00
8:30 AM,82.4,77.0,84,29.95,6.2,NE,4.6,-,N/A,,Mostly Cloudy,50,2013-10-30 01:30:00
9:00 AM,82.4,75.2,79,29.95,6.2,ENE,6.9,-,N/A,,Mostly Cloudy,70,2013-10-30 02:00:00
9:30 AM,84.2,73.4,70,29.95,5.6,ENE,6.9,-,N/A,,Mostly Cloudy,70,2013-10-30 02:30:00
10:00 AM,86.0,73.4,66,29.95,5.6,East,8.1,-,N/A,,Mostly Cloudy,80,2013-10-30 03:00:00
10:30 AM,86.0,73.4,66,29.95,5.6,East,9.2,-,N/A,,Scattered Clouds,80,2013-10-30 03:30:00
11:00 AM,87.8,73.4,62,29.92,5.6,East,8.1,-,N/A,,Mostly Cloudy,80,2013-10-30 04:00:00
11:30 AM,87.8,75.2,66,29.92,5.6,ENE,5.8,-,N/A,,Mostly Cloudy,70,2013-10-30 04:30:00
12:00 PM,86.0,73.4,66,29.92,5.6,ENE,6.9,-,N/A,,Mostly Cloudy,70,2013-10-30 05:00:00
12:30 PM,87.8,73.4,62,29.89,5.6,ENE,8.1,-,N/A,,Mostly Cloudy,70,2013-10-30 05:30:00
1:00 PM,90,75,52,29.87,5,East,6.9,,,,Haze,90,2013-10-30 06:00:00
1:00 PM,89.6,69.8,52,29.86,5.6,East,8.1,-,N/A,,Mostly Cloudy,90,2013-10-30 06:00:00
1:30 PM,87.8,75.2,66,29.86,5.0,WSW,8.1,-,N/A,,Mostly Cloudy,240,2013-10-30 06:30:00
3:00 PM,87.8,75.2,66,29.83,5.0,WSW,6.9,-,N/A,,Scattered Clouds,250,2013-10-30 08:00:00
3:30 PM,89.6,73.4,59,29.80,5.0,WSW,6.9,-,N/A,,Mostly Cloudy,240,2013-10-30 08:30:00
4:00 PM,87.8,75.2,66,29.80,5.0,West,11.5,-,N/A,,Mostly Cloudy,270,2013-10-30 09:00:00
4:30 PM,86.0,75.2,70,29.83,5.0,West,5.8,-,N/A,,Mostly Cloudy,270,2013-10-30 09:30:00
5:00 PM,84.2,75.2,74,29.80,5.0,Variable,3.5,-,N/A,,Mostly Cloudy,0,2013-10-30 10:00:00
5:30 PM,84.2,73.4,70,29.80,5.0,Variable,3.5,-,N/A,,Mostly Cloudy,0,2013-10-30 10:30:00
6:00 PM,82.4,73.4,74,29.83,4.3,West,3.5,-,N/A,,Mostly Cloudy,270,2013-10-30 11:00:00
6:30 PM,82.4,75.2,79,29.83,4.3,Calm,Calm,-,N/A,Thunderstorm,Thunderstorm,0,2013-10-30 11:30:00
7:00 PM,85,79,77,29.81,4,NNE,3.5,,,Thunderstorm,Thunderstorm,30,2013-10-30 12:00:00
7:00 PM,82.4,75.2,79,29.86,4.3,NNE,5.8,-,N/A,Thunderstorm,Thunderstorm,30,2013-10-30 12:00:00
7:30 PM,78.8,75.2,89,29.86,3.1,NE,3.5,-,N/A,Rain,Rain,50,2013-10-30 12:30:00
8:00 PM,78.8,75.2,89,29.89,4.3,Calm,Calm,-,N/A,,Mostly Cloudy,0,2013-10-30 13:00:00
8:30 PM,78.8,75.2,89,29.89,4.3,Variable,2.3,-,N/A,,Mostly Cloudy,0,2013-10-30 13:30:00
9:00 PM,78.8,75.2,89,29.92,4.3,East,4.6,-,N/A,,Mostly Cloudy,80,2013-10-30 14:00:00
9:30 PM,78.8,75.2,89,29.92,4.3,West,3.5,-,N/A,,Mostly Cloudy,280,2013-10-30 14:30:00
10:00 PM,78.8,75.2,89,29.92,4.3,Calm,Calm,-,N/A,,Mostly Cloudy,0,2013-10-30 15:00:00
10:30 PM,78.8,75.2,89,29.92,4.3,Calm,Calm,-,N/A,,Mostly Cloudy,0,2013-10-30 15:30:00
11:00 PM,77.0,75.2,94,29.92,4.3,Calm,Calm,-,N/A,,Mostly Cloudy,0,2013-10-30 16:00:00
11:30 PM,78.8,75.2,89,29.92,4.3,Variable,1.2,-,N/A,,Scattered Clouds,0,2013-10-30 16:30:00